Location: Pasadena, ca
(34.1243°N, 118.1037°W)
Time: 00:30:02
(UTC-08:00)

Tiangong 2 - Pass Details

Date: 09 October 2017
Orbit: 386 x 390 km, 42.8° (Epoch: 11 December)

Event Time Altitude Azimuth Distance (km) Brightness Sun altitude
Exits shadow 05:04:31 39° 70° (ENE) 595 2.4 -23.2°
Drops below altitude 10° 05:06:41 10° 63° (ENE) 1,422 4.9 -22.8°
Sets 05:08:46 0° 62° (ENE) 2,281 6.2 -22.4°
